Regional Weather Roundup
Issued by NWS

Home | Current Version | Previous Version | Graphics & Text | Print | Product List | Glossary On
Versions: 1 2 3 4 5 6 7 8 9 10 11 12 13 14 15 16 17 18 19 20 21 22 23 24 25 26 27 28 29 30 31 32 33 34 35 36 37 38 39 40 41 42 43 44 45 46 47 48 49 50
000
ASUS43 KDMX 040004
RWRIA

WEATHER ROUNDUP FOR IOWA
NATIONAL WEATHER SERVICE DES MOINES IA
  ISSUED BY NWS QUAD CITIES IA IL
600 PM CST TUE MAR 03 2015

NOTE: "FAIR" INDICATES FEW OR NO CLOUDS BELOW 12,000 FEET WITH NO
SIGNIFICANT WEATHER AND/OR OBSTRUCTIONS TO VISIBILITY.

* - THESE STATIONS ARE NOT NWS STATIONS...THUS NOT UNDER NWS
QUALITY CONTROL.  THEY ALSO DO NOT REPORT WEATHER SUCH
AS PRECIPITATION OR FOG.

IAZ001>003-012>014-020>022-031>034-043>046-040100-
   NORTHWEST IOWA

CITY           SKY/WX    TMP DP  RH WIND       PRES   REMARKS
CARROLL *      PTCLDY    23  14  68 NW23G30   29.93R WCI   7
CHEROKEE *     CLEAR     17   8  66 N16G28    29.97R WCI   2
6HR MIN TEMP:  17; 6HR MAX TEMP:  32;

DENNISON *     MOCLDY    23  12  63 N21       29.94R WCI   8
LE MARS *      PTCLDY    18   7  62 N20G28    30.01R WCI   1
ORANGE CITY *  CLEAR     18   7  62 N16G24    29.98R WCI   3
SHELDON *      PTCLDY    14   5  67 NW24G31   29.95S WCI  -5
SIOUX CITY     CLEAR     21   7  54 NW28      29.99R WCI   3
6HR MIN TEMP:  21; 6HR MAX TEMP:  30; 6HR PCP: TRACE;

SPENCER        PTCLDY    16   7  67 NW21G31   29.95R WCI  -1
6HR MIN TEMP:  16; 6HR MAX TEMP:  28; 6HR PCP: TRACE;

STORM LAKE *   MOCLDY    18   9  68 NW24G32   29.93S WCI   0
$$

IAZ055>058-069>071-079>083-090>094-040100-
   SOUTHWEST IOWA

CITY           SKY/WX    TMP DP  RH WIND       PRES   REMARKS
ATLANTIC *     MOCLDY    27  18  69 N17       29.95R WCI  14
AUDUBON *      MOCLDY    25  16  68 N15       29.94R WCI  12
CLARINDA *     CLOUDY    30  23  74 N15       29.96R WCI  19
COUNCIL BLFS * CLOUDY    27  12  54 NW16G24   29.96R WCI  14
CRESTON *      CLOUDY    28  23  80 NW18G24   29.91R WCI  16
HARLAN *       MOCLDY    25  18  74 N17G25    30.00R WCI  11
LAMONI         CLOUDY    32  26  78 NW16G23   29.88R WCI  21
6HR MIN TEMP:  32; 6HR MAX TEMP:  36;

RED OAK *      CLOUDY    28  19  69 N16G22    29.97R WCI  17
SHENANDOAH *   CLOUDY    30  19  64 N15G22    29.97R WCI  19
$$

IAZ047>049-059>061-072>074-084-040100-
   CENTRAL IOWA

CITY           SKY/WX    TMP DP  RH WIND       PRES   REMARKS
AMES           CLOUDY    26  17  68 NW21G29   29.90R WCI  12
6HR MIN TEMP:  26; 6HR MAX TEMP:  34;

ANKENY *       CLOUDY    28  19  69 NW20G29   29.91R WCI  15
BOONE *        MOCLDY    25  18  74 NW17G25   29.89R WCI  11
CHARITON *     CLOUDY    32  27  80 NW14G21   29.88R WCI  22
DES MOINES     CLOUDY    29  19  66 N20G30    29.90R WCI  16
6HR MIN TEMP:  29; 6HR MAX TEMP:  36;

GRINNELL *     CLOUDY    27  22  82 NW26      29.87R WCI  12
6HR MIN TEMP:  27; 6HR MAX TEMP:  33;

KNOXVILLE *    CLOUDY    32  23  69 N16G24    29.87R WCI  21
MARSHALLTOWN   CLOUDY    25  18  74 NW18      29.88R WCI  11
6HR MIN TEMP:  25; 6HR MAX TEMP:  33;

NEWTON *       CLOUDY    28  21  74 NW20G28   29.88R WCI  15
PELLA *        CLOUDY    31  27  86 N22       29.90R WCI  18
6HR MIN TEMP:  31; 6HR MAX TEMP:  35;

PERRY *          N/A     28  21  76 NW21      29.92R WCI  14
6HR MIN TEMP:  28; 6HR MAX TEMP:  34;

$$

IAZ004>006-015-016-023>025-035-036-040100-
   NORTH CENTRAL IOWA

CITY           SKY/WX    TMP DP  RH WIND       PRES   REMARKS
ALGONA *       FLURRIES  19 N/A N/A NW22G31   29.92R WCI   3
CLARION *      PTCLDY    19  14  79 NW25G35   29.90R WCI   2
ESTHERVILLE    FLURRIES  15   8  73 NW22G30   29.92R WCI  -3
6HR MIN TEMP:  15; 6HR MAX TEMP:  25; 6HR PCP: TRACE;

FORT DODGE *   PTCLDY    21  12  68 NW13G20   29.93R WCI   9
6HR MIN TEMP:  21; 6HR MAX TEMP:  34;

MASON CITY     MOCLDY    18  12  77 NW26G33   29.87R WCI  -1
6HR MIN TEMP:  18; 6HR MAX TEMP:  32;

FOREST CITY *  FAIR      18   9  68 NW17G29   29.89R WCI   2
WEBSTER CITY * PTCLDY    23  23 100 NW24G30   29.89R WCI   7
IOWA FALLS *   MOCLDY    23  17  79 NW21      29.88R WCI   8
6HR MIN TEMP:  23; 6HR MAX TEMP:  32;

$$

IAZ007>011-017>019-026>030-037>042-050>054-066-040100-
   NORTHEAST IOWA

CITY           SKY/WX    TMP DP  RH WIND       PRES   REMARKS
CEDAR RAPIDS   CLOUDY    29  24  82 NW24      29.82R WCI  15
6HR MIN TEMP:  29; 6HR MAX TEMP:  33;

CHARLES CITY * PTCLDY    21  16  79 NW24      29.84R WCI   4
CLINTON *      CLOUDY    30  25  80 NW17      29.80S WCI  18
6HR MIN TEMP:  30; 6HR MAX TEMP:  34;

DECORAH *      CLOUDY    27  21  80 NW12G24   29.77R WCI  16
DUBUQUE        CLOUDY    30  25  81 W10G18    29.75R HAZE    WCI  21
MONTICELLO *   CLOUDY    32  27  80 NW17      29.78R WCI  21
OELWEIN *      CLOUDY    25  21  86 NW23G30   29.81R WCI  10
WATERLOO       CLOUDY    24  17  74 NW21G30   29.84R WCI   9
6HR MIN TEMP:  24; 6HR MAX TEMP:  32;

$$

IAZ064-065-067-068-078-040100-
   EAST CENTRAL IOWA

CITY           SKY/WX    TMP DP  RH WIND       PRES   REMARKS
DAVENPORT      CLOUDY    32  24  72 NW17      29.79R WCI  21
6HR MIN TEMP:  32; 6HR MAX TEMP:  34;

IOWA CITY      CLOUDY    33  25  72 NW15G25   29.84R WCI  23
6HR MIN TEMP:  33; 6HR MAX TEMP:  35;

MT. PLEASANT * CLOUDY    33  26  75 NW13G18   29.85R WCI  24
6HR MIN TEMP:  33; 6HR MAX TEMP:  36;

MUSCATINE *    CLOUDY    34  27  75 NW10G18   29.85R WCI  26
QUAD CITIES    CLOUDY    33  27  78 W8        29.80R WCI  26
6HR MIN TEMP:  33; 6HR MAX TEMP:  35;

$$

IAZ062-063-075>077-085>089-095>099-040100-
   SOUTHEAST IOWA

CITY           SKY/WX    TMP DP  RH WIND       PRES   REMARKS
BURLINGTON     CLOUDY    34  28  79 NW9       29.82S WCI  27
6HR MIN TEMP:  34; 6HR MAX TEMP:  37;

FAIRFIELD *    CLOUDY    34  27  75 NW8       29.86R WCI  27
FORT MADISON * CLOUDY    34  28  80 NW15      29.84R WCI  24
KEOKUK *       CLOUDY    36  28  75 NW12      29.84R WCI  27
OSKALOOSA *    CLOUDY    32  27  83 NW17      29.87R WCI  21
6HR MIN TEMP:  32; 6HR MAX TEMP:  34;

CENTERVILLE *  CLOUDY    32  28  86 NW9       29.87R WCI  24
OTTUMWA        CLOUDY    33  27  78 NW8       29.85R WCI  26
6HR MIN TEMP:  33; 6HR MAX TEMP:  36;

WASHINGTON *   CLOUDY    34  32  93 W9        29.85R WCI  26
$$

ABBREVIATIONS USED IN REMARKS
   TC - TEMPERATURES IN CELSIUS
  WCI - WIND CHILL INDEX
   HX - HEAT INDEX
  VSB - VISIBILITY
$$



USA.gov is the U.S. government's official web portal to all federal, state and local government web resources and services.